Theta_e
327 325 325 325 326 326 325 324 321 316 318 321 321 325 325 326 324 319 316 310 308 307 308 310 313 315 315 316 316 317 318 319 319 319 319 319 319 318
327 325 325 326 326 326 324 325 325 322 316 324 324 325 326 327 324 322 321 310 306 305 305 306 309 311 312 313 313 314 315 316 317 317 318 318 319 319
326 325 324 326 325 326 325 324 323 324 320 320 326 328 326 327 327 324 322 313 310 305 304 305 305 306 307 308 309 310 311 312 313 315 316 317 318 318
325 324 324 325 324 324 324 323 323 323 322 319 321 323 326 328 328 324 325 324 319 307 304 304 304 304 304 304 305 306 306 307 308 310 311 313 314 316
325 324 324 324 323 323 322 322 322 322 322 321 320 322 324 327 327 326 323 322 325 313 304 303 302 303 303 303 303 304 304 304 304 304 305 306 307 310
326 325 323 322 321 322 321 322 321 321 321 320 321 320 320 323 325 323 323 323 323 326 310 307 304 303 302 302 302 302 302 303 303 303 302 300 301 303
316 325 325 322 314 317 323 323 322 321 320 320 319 318 319 317 318 320 322 324 324 323 316 313 309 306 305 301 304 302 301 301 302 302 302 300 299 300
309 321 323 312 310 304 305 305 316 320 318 318 317 316 317 318 319 318 319 318 318 327 324 316 314 310 312 309 305 302 299 300 300 300 300 300 299 298
308 313 316 321 310 319 304 299 299 300 308 320 317 317 317 319 320 318 319 319 319 323 325 322 318 315 317 316 303 300 301 299 299 299 299 298 298 297
301 304 306 308 308 312 320 317 314 314 312 313 321 321 320 319 319 319 318 319 321 324 324 319 325 319 320 320 304 302 300 299 298 298 297 297 296 296
298 301 302 298 291 292 307 318 318 318 309 302 304 303 302 302 310 320 317 317 316 320 323 321 321 322 325 322 320 301 301 298 298 297 297 296 295 294
297 298 293 292 290 290 295 306 315 317 317 316 312 306 304 310 299 322 322 318 318 313 319 317 318 319 310 320 322 309 306 299 299 296 296 295 294 297
293 293 294 290 291 291 291 297 302 300 302 315 318 316 317 317 318 316 323 322 318 317 318 320 318 316 313 310 315 311 309 299 301 297 295 294 294 297
291 292 292 290 291 291 292 289 290 289 302 307 316 316 316 316 318 319 319 321 324 322 323 322 318 319 316 307 305 311 308 307 304 300 297 295 293 294
291 289 289 290 290 290 290 289 291 295 297 304 308 314 316 318 318 319 321 322 321 322 321 320 322 321 319 315 308 305 307 309 306 304 300 296 294 294
288 289 287 286 288 288 290 291 292 292 292 293 295 298 302 312 317 319 317 318 317 317 320 321 322 321 317 318 316 306 309 306 309 308 306 300 297 297
288 288 286 286 285 286 287 289 290 290 290 291 292 292 295 297 300 303 316 317 315 314 314 316 307 314 318 318 314 317 311 307 312 312 309 303 300 299
285 284 283 283 283 284 285 285 286 286 287 289 290 290 290 291 292 295 298 300 313 314 313 310 298 296 296 298 301 305 309 309 303 310 309 303 300 303
282 282 282 282 281 281 282 283 283 285 286 285 286 287 288 289 289 289 291 293 293 299 311 304 304 308 305 303 299 294 309 303 300 302 306 303 299 300
281 281 280 281 281 281 281 280 281 282 282 283 283 283 284 286 286 286 287 287 288 290 292 302 304 305 307 305 298 295 291 300 300 301 299 295 291 290
279 279 280 280 280 280 280 280 280 280 280 280 280 281 282 282 283 286 286 286 286 288 289 293 300 293 306 299 290 288 292 291 300 303 299 297 292 289
278 278 279 280 280 280 279 279 278 278 277 277 276 278 279 280 281 282 286 285 286 286 288 290 295 298 294 296 301 293 290 292 291 289 292 293 292 289
278 277 278 278 279 279 278 278 277 276 275 274 274 275 276 277 280 282 283 285 285 286 286 287 289 292 295 295 296 294 289 289 290 291 289 285 287 290
Wind_Speed
11 11 10 6 7 7 9 9 8 7 11 8 4 13 10 10 8 12 12 21 23 21 20 19 17 15 17 16 17 16 16 16 16 16 16 15 15 14
8 10 9 8 10 11 9 9 7 5 3 3 9 6 13 11 11 12 13 19 22 22 21 19 19 18 17 17 17 16 17 16 16 15 15 15 15 15
10 10 11 12 10 10 11 11 10 4 6 3 2 2 11 11 11 11 11 10 12 21 22 21 20 21 19 18 18 17 17 17 17 17 16 16 16 16
11 12 13 8 7 5 3 13 13 10 4 8 3 2 2 5 4 9 9 10 9 18 22 22 22 22 20 19 19 19 17 17 17 16 17 17 18 17
10 10 12 9 7 6 7 6 6 6 8 7 5 2 5 3 5 5 6 6 9 15 24 24 23 22 22 22 21 20 20 20 19 19 18 17 17 16
9 12 13 13 15 13 11 11 10 9 10 9 9 7 3 3 4 4 5 5 7 7 13 16 20 22 23 23 22 21 22 22 22 21 19 18 18 17
10 9 11 13 14 14 9 12 11 9 7 13 9 5 5 4 5 4 5 4 4 6 4 7 8 10 13 18 20 22 24 24 24 23 22 20 20 18
8 7 5 8 8 12 14 14 13 15 15 12 10 10 15 11 7 7 5 4 8 6 8 6 9 10 11 11 23 24 26 26 25 25 24 21 21 20
7 6 8 4 9 8 12 13 13 14 19 16 14 16 15 14 9 9 8 8 9 8 9 11 9 10 10 12 19 24 27 26 26 25 24 22 21 19
9 11 9 13 13 9 10 9 12 11 16 14 14 17 14 11 10 11 12 11 9 9 5 8 6 9 8 10 17 22 24 25 22 23 22 21 19 17
9 9 10 12 18 19 9 9 9 10 9 16 17 14 13 13 14 11 14 12 13 12 10 6 6 8 8 9 8 21 23 22 23 22 20 19 16 13
9 9 10 13 16 15 10 8 9 10 8 10 10 13 18 17 15 20 12 12 11 7 9 8 10 7 4 4 6 5 7 14 19 18 18 16 15 7
8 9 8 16 14 14 11 7 7 9 10 7 9 8 10 11 12 10 12 11 11 12 7 12 10 5 5 2 3 4 6 4 7 6 11 15 20 15
11 10 11 16 15 12 11 15 15 6 6 6 8 8 9 8 10 11 13 12 11 13 8 10 6 10 7 4 4 2 4 4 5 5 6 8 15 18
9 13 17 17 17 12 15 15 12 9 8 7 7 7 6 7 9 9 13 16 18 18 13 8 8 8 8 8 6 5 5 6 6 6 7 9 9 7
10 10 11 12 11 10 12 12 10 9 9 8 8 7 8 8 8 9 9 8 9 11 16 16 12 12 9 9 10 5 7 7 7 7 8 7 8 8
8 8 9 11 13 11 11 11 10 9 11 10 8 9 9 8 8 9 8 10 11 12 11 9 4 8 9 12 9 11 9 6 8 9 9 8 8 10
9 9 10 10 11 11 11 11 11 12 11 10 10 10 10 10 10 9 8 9 11 11 11 8 5 3 3 4 7 6 7 8 4 9 8 8 7 9
10 9 9 10 10 10 11 10 11 10 11 9 10 10 10 9 11 9 8 8 9 11 10 6 9 11 14 16 4 9 10 7 7 8 10 9 7 11
9 9 9 9 9 9 9 10 10 10 10 10 10 10 10 11 11 10 10 8 7 9 10 6 8 12 14 15 9 5 16 8 9 10 7 3 2 6
7 8 8 8 8 8 8 8 10 10 10 10 10 10 10 9 10 9 10 11 9 7 10 7 6 9 5 4 2 2 4 17 10 12 8 8 5 2
7 7 7 7 7 7 8 8 8 10 10 10 11 10 10 10 9 11 10 10 9 9 10 8 9 8 4 6 10 4 3 3 8 3 6 8 8 11
7 7 8 8 7 7 7 8 7 8 9 10 10 11 11 12 11 10 11 11 9 10 10 10 8 4 9 7 9 5 6 4 6 7 2 8 5 1
Wind_Direction
211 204 207 191 210 199 194 191 189 200 206 199 182 207 213 217 214 182 178 191 191 194 197 199 201 201 203 206 211 214 218 221 225 228 230 233 238 243
201 200 202 209 207 199 193 198 194 214 186 199 215 190 202 210 213 188 182 179 191 193 199 201 201 205 203 205 208 210 214 218 220 225 227 227 228 234
198 202 214 220 210 207 196 197 215 198 225 263 209 229 204 212 206 192 179 170 192 199 197 202 204 210 207 207 209 210 211 216 219 220 223 225 229 229
206 200 205 211 218 202 231 207 203 204 228 225 268 205 240 216 243 190 184 192 182 199 202 205 206 211 211 211 210 214 211 215 218 218 220 221 226 227
216 215 208 184 205 188 198 212 199 202 220 236 230 230 210 206 238 204 193 201 199 181 201 204 205 211 214 216 215 214 213 217 218 219 218 216 223 219
217 212 208 205 218 217 214 215 209 207 212 221 234 234 201 210 200 213 212 210 222 220 198 202 206 211 216 217 217 216 217 218 220 220 220 215 220 219
315 213 219 223 214 217 199 207 208 218 223 213 211 206 210 198 206 201 209 196 252 219 188 197 194 206 225 226 228 220 221 222 221 221 222 217 218 218
313 301 203 219 219 226 230 212 220 222 226 224 221 219 225 224 219 203 200 202 232 203 228 211 183 205 215 208 215 219 219 222 222 222 222 219 219 216
297 312 306 252 215 221 228 228 241 241 223 222 225 222 227 213 201 206 203 213 229 247 209 231 185 217 210 219 204 208 218 217 220 219 221 217 217 213
1 9 357 351 2 301 221 228 230 230 236 224 222 230 223 225 216 221 232 245 256 241 184 226 211 227 216 221 200 203 210 216 214 218 219 218 216 208
356 13 18 10 351 347 299 234 235 238 233 227 217 246 251 243 228 233 232 229 238 233 214 222 223 233 227 223 211 203 209 207 209 210 211 212 207 190
13 14 30 5 341 337 324 313 256 243 225 236 236 238 245 249 232 213 213 217 220 222 213 213 225 214 245 229 210 176 208 218 213 204 203 197 175 189
3 8 5 352 350 348 334 310 289 335 313 271 224 226 230 230 232 230 227 215 223 230 225 202 221 207 180 228 236 173 177 152 187 187 188 185 178 186
0 7 360 352 356 2 8 343 338 296 284 271 261 228 224 218 220 223 219 228 229 226 224 205 200 200 208 185 210 215 187 170 161 173 173 169 187 198
4 10 359 2 5 6 12 359 17 359 351 318 265 277 225 228 225 227 228 225 227 232 227 210 204 193 203 211 204 201 145 200 184 168 168 175 173 185
5 15 14 16 12 5 15 6 18 8 4 352 328 332 323 336 237 215 213 219 226 222 221 214 210 212 220 213 206 205 183 180 177 192 176 163 178 187
6 12 17 16 14 14 12 11 8 7 9 356 339 355 337 343 328 340 262 219 220 222 219 209 197 212 220 225 225 221 195 200 188 179 169 185 196 190
19 18 17 16 15 5 5 4 5 5 0 355 353 359 343 355 331 338 316 342 247 221 219 193 162 126 17 278 223 195 194 201 188 188 180 183 205 195
22 14 14 10 9 10 6 1 355 1 352 359 353 348 346 350 339 339 336 336 319 327 239 181 189 199 217 235 243 222 207 196 175 187 189 189 200 198
16 11 7 4 4 3 3 359 350 352 356 355 354 350 348 340 340 348 319 332 336 320 305 306 209 200 208 220 207 225 201 171 185 190 189 130 60 101
6 4 359 357 0 359 356 355 351 348 354 350 348 345 346 342 330 321 324 331 321 317 301 317 295 303 283 66 74 225 220 221 196 192 184 191 166 145
0 354 353 351 351 354 352 347 351 349 353 349 344 338 339 333 324 328 320 322 324 308 294 301 300 313 219 222 232 195 197 164 207 332 227 155 170 184
352 353 346 346 341 349 349 339 352 349 353 344 339 334 333 328 325 321 326 318 310 308 310 309 306 299 267 246 228 217 167 162 171 194 161 4 295 192